Regional Weather Roundup
Issued by NWS Jackson, KY

Home | Current Version | Previous Version | Graphics & Text | Print | Product List | Glossary On
Versions: 1 2 3 4 5 6 7 8 9 10 11 12 13 14 15 16 17 18 19 20 21 22 23 24 25 26 27 28 29 30 31 32 33 34 35 36 37 38 39 40 41 42 43 44 45 46 47 48 49 50
508
ASUS43 KJKL 221210
RWRJKL

EAST KENTUCKY HOURLY WEATHER ROUNDUP
NATIONAL WEATHER SERVICE JACKSON KY
800 AM EDT MON MAY 22 2017

NOTE: "FAIR" INDICATES FEW OR NO CLOUDS BELOW 12,000 FEET WITH
NO SIGNIFICANT WEATHER AND/OR OBSTRUCTIONS TO VISIBILITY.

* THESE REPORTS ARE NOT UNDER NWS QUALITY CONTROL AND MAY NOT
  REPORT WEATHER SUCH AS PRECIPITATION AND FOG.

KYZ079-080-083-085-087-088-110-112-115-119-120-221300
...EASTERN KENTUCKY...

CITY           SKY/WX    TMP DP  RH WIND       PRES   REMARKS
JACKSON        CLOUDY    58  52  80 NW8       30.15R
6HR MIN TEMP:  58; 6HR MAX TEMP:  65;

LONDON         CLOUDY    57  51  80 N7        30.16R
6HR MIN TEMP:  57; 6HR MAX TEMP:  65; 6HR PCP: TRACE;

SOMERSET*      CLOUDY    55  50  82 NE3       30.19R
WILLIAMSBURG*  CLOUDY    57  57 100 NW3       30.16R
MIDDLESBORO*   CLOUDY    63  58  84 NW9       30.13R
6HR MIN TEMP:  63; 6HR MAX TEMP:  65; 6HR PCP:  0.02;

HARLAN APT*    CLOUDY    63  55  77 NW6       30.13R
PIKE CO APT*   CLOUDY    61  61 100 W6        30.12R
BIG SANDY APT* CLOUDY    61  57  86 NW8       30.13R
MOREHEAD APT*  CLOUDY    55  52  88 CALM      30.16R
ASHLAND*       CLOUDY    59  54  82 CALM      30.10S
$$

KYZ035-036-041-042-044-050-067-078-099-221300
...CENTRAL KENTUCKY...

CITY           SKY/WX    TMP DP  RH WIND       PRES   REMARKS
MT STERLING*   CLOUDY    54  48  82 NW3       30.18R
FLEMING/MASON* SUNNY     54  46  76 NW6       30.16R
DANVILLE*      MOSUNNY   54  50  87 CALM      30.18R
LEXINGTON      CLOUDY    56  44  64 N3        30.15R
6HR MIN TEMP:  52; 6HR MAX TEMP:  61;

FRANKFORT      MOSUNNY   55  48  77 CALM      30.14R
6HR MIN TEMP:  50; 6HR MAX TEMP:  61;

LOUISVILLE     PTSUNNY   57  46  66 SE3       30.16R
6HR MIN TEMP:  55; 6HR MAX TEMP:  63;

LEBANON*         N/A     55  46  71 CALM      30.18R
GLASGOW*       CLOUDY    58  49  74 CALM      30.19R
BOWLING GREEN  PTSUNNY   59  54  83 CALM      30.19R
6HR MIN TEMP:  55; 6HR MAX TEMP:  65;

$$

KYZ091>093-OHZ055-061-077-WVZ005-015-034-035-042-221300
...SOUTHERN OHIO/WEST VIRGINIA...

CITY           SKY/WX    TMP DP  RH WIND       PRES   REMARKS
COVINGTON      PTSUNNY   54  46  74 CALM      30.13R
COLUMBUS       PTSUNNY   54  42  64 NW9       30.09R
DAYTON         CLOUDY    51  43  74 SW8       30.12R
WILMINGTON     SUNNY     54  44  69 W7        30.11R
HUNTINGTON     CLOUDY    59  52  77 VRB6      30.11R
CHARLESTON     LGT RAIN  65  60  84 W12G20    30.07R
PINEVILLE*     LGT RAIN  62  61  97 MISG      30.14R
BECKLEY        CLOUDY    61  58  90 S3        30.10S
BLUEFIELD      CLOUDY    58  57  97 CALM      30.13S
LOGAN CO APT*  CLOUDY    63  61  94 CALM      30.10R
$$

VAZ002-007-008-TNZ017-027-036-066-071-221300
...SOUTHWEST VIRGINIA/EAST TENNESSEE...

CITY           SKY/WX    TMP DP  RH WIND       PRES   REMARKS
JONESVILLE*      N/A     64  63  94 NW6       30.12S
ABINGDON*      CLOUDY    64  64  99 CALM      30.11S
BRISTOL        CLOUDY    64  62  93 CALM      30.09F
MORRISTOWN*    CLOUDY    66  66 100 CALM      30.09R
SEVIERVILLE*   CLOUDY    66  64  94 CALM      30.09R
KNOXVILLE      CLOUDY    68  65  90 W3        30.09R
LAFOLLETTE*    CLOUDY    64  57  77 NE5       30.15R
OAK RIDGE      CLOUDY    67  64  90 CALM      30.11R
CROSSVILLE     CLOUDY    59  56  89 N5        30.17R
NASHVILLE      PTSUNNY   63  54  72 NE8       30.17R
$$

...KEY TO REMARKS...
VSB - VISIBILITY IN MILES
WCI - WIND CHILL INDEX
HX  - HEAT INDEX

$$




USA.gov is the U.S. government's official web portal to all federal, state and local government web resources and services.